Regional Weather Roundup
Issued by NWS Wakefield, VA

Home | Current Version | Previous Version | Graphics & Text | Print | Product List | Glossary On
Versions: 1 2 3 4 5 6 7 8 9 10 11 12 13 14 15 16 17 18 19 20 21 22 23 24 25 26 27 28 29 30 31 32 33 34 35 36 37 38 39 40 41 42 43 44 45 46 47 48 49 50
496
ASUS41 KAKQ 300715
RWRAKQ

REGIONAL WEATHER ROUNDUP
NATIONAL WEATHER SERVICE WAKEFIELD VA
300 AM EDT SAT APR 30 2016

Note: "fair" indicates few or no clouds below 12,000 feet with no
significant weather and/or obstructions to visibility. * = Denotes
station may not report precipitation (e.g., rain,snow,etc.),
thunder or fog.

VAZ042-051-052>054-056-300800-
NORTHERN VIRGINIA

CITY           SKY/WX    TMP DP  RH WIND       PRES   REMARKS
WASH NATIONAL  CLOUDY    52  50  93 NE8       30.13S
DULLES         CLOUDY    52  49  89 CALM      30.12S
FORT BELVOIR   CLOUDY    52  49  91 CALM      30.13R
QUANTICO       CLOUDY    54  51  90 E7        30.14R
FREDERICKSBRG* CLOUDY    53  53 100 N3        30.12R
STAFFORD*      CLOUDY    52  49  91 CALM      30.16R
WARRENTON      CLOUDY    53  48  83 CALM      30.12R HAZE
CULPEPER*      CLOUDY    53  53  99 CALM      30.13R FOG
MANASSAS*      CLOUDY    54  52  94 NE5       30.13R
LEESBURG*      CLOUDY    52  52 100 CALM      30.13S FOG
WINCHESTER     CLOUDY    52  50  93 CALM      30.11S FOG
FRONT ROYAL*   CLOUDY    50  50 100 CALM      30.11S
LURAY*         CLOUDY    52  52 100 NE3       30.10S FOG
$$

VAZ048-049-060>072-079>083-300800-
CENTRAL AND SOUTH CENTRAL VIRGINIA

CITY           SKY/WX    TMP DP  RH WIND       PRES   REMARKS
RICHMOND       CLOUDY    53  52  96 E3        30.10S
CHESTERFIELD*  CLOUDY    54  43  66 NE7       30.12S
PETERSBURG*    CLOUDY    56  56 100 NE7       30.10S
HANOVER        CLOUDY    53  50  89 CALM      30.11F
TAPPAHANNOCK*  CLOUDY    54  53  97 CALM      30.11F
QUINTON*       CLOUDY    53  51  95 MISG      30.09F
CHARLOTTSVILLE CLOUDY    54  51  90 CALM      30.10F FOG
GORDONSVILLE*  CLOUDY    53  53  99 CALM      30.10S FOG
ORANGE*        CLOUDY    54  54 100 CALM      30.12S FOG
LOUISA*        CLOUDY    55  55 100 CALM      30.10S FOG
BUMPASS*       CLOUDY    52  51  99 E5        30.11S
FARMVILLE*     CLOUDY    56  56 100 N5        30.09R FOG
CREWE*         CLOUDY    55  55 100 CALM      30.08F
FORT PICKETT*  NOT AVBL
CHASE CITY*    CLOUDY    57  55  95 CALM      30.08R
CLARKSVILLE*   CLOUDY    59  55  88 NE6       30.07S
SOUTH HILL*    CLOUDY    56  55  96 NE3       30.13S
LAWRENCEVILLE* CLOUDY    56  55  99 CALM      30.07S
EMPORIA*       CLOUDY    54  54 100 N3        30.10R
$$

VAZ088>098-300800-
SOUTHEAST VIRGINIA

CITY           SKY/WX    TMP DP  RH WIND       PRES   REMARKS
NORFOLK        CLOUDY    56  52  86 N12       30.08S
VIRGINIA BEACH CLOUDY    58  52  80 NE13      30.07S
NORFOLK NAVAL  CLOUDY    56  53  90 N13       30.09F
WEST POINT*    CLOUDY    53  51  91 NW3       30.12S
SALUDA*        CLOUDY    53  51  94 NE5       30.09F
NEWPORT NEWS   CLOUDY    55  52  89 N3        30.09F
LANGLEY AFB    CLOUDY    55  52  91 NE8       30.08S
FORT EUSTIS    CLOUDY    54  54 100 VRB5      30.08R
WILLIAMSBURG*  CLOUDY    55  54  94 CALM      30.10S
HR EXEC AP*    CLOUDY    55  54  94 NE5       30.10S
FRANKLIN*      CLOUDY    55  52  92 N5        30.08F
US460-WAKEFLD  CLOUDY    55  52  89 N5        30.09S
$$

VAZ020-022-025-037-045-300800-
WEST CENTRAL AND SOUTHWEST VIRGINIA

CITY           SKY/WX    TMP DP  RH WIND       PRES   REMARKS
STAUNTON*      CLOUDY    55  54  97 CALM      30.12R FOG
WAYNESBORO*    CLOUDY    52  51  95 MISG      30.10S
HOT SPRINGS VA CLOUDY    52  52 100 CALM      30.09F FOG
LYNCHBURG      CLOUDY    54  53  97 NE7       30.10S
DANVILLE       CLOUDY    59  32  36 NE7       30.08R
SOUTH BOSTON*  CLOUDY    58  57  96 CALM      30.08R
MARTINSVILLE   CLOUDY    57  54  89 NE6       30.09S
ROANOKE        CLOUDY    57  56  96 SE8       30.09S
BLACKSBURG     CLOUDY    57  56  97 E9        30.09F
DUBLIN*        FAIR      61  52  72 S7        30.08S
MARION*        FAIR      60  49  65 CALM      30.08F
HILLSVILLE*    FAIR      58  50  73 SE5       30.06F
RICHLANDS*     FAIR      60  32  34 N3        30.06F
WISE*          FAIR      59  45  58 CALM      30.07S
ABINGDON*      FAIR      62  51  67 CALM      30.03F
$$

MDZ021>025-VAZ099-100-300800-
SOUTHERN MARYLAND AND THE DELMARVA PENINSULA

CITY           SKY/WX    TMP DP  RH WIND       PRES   REMARKS
PATUXENT RIVER CLOUDY    51  48  89 NE7       30.11F
BAY BRIDGE APT NOT AVBL
LEONARDTOWN    CLOUDY    50  46  87 CALM      30.12S
DOVER          CLOUDY    48  48 100 NE9       30.11F
GEORGETOWN     CLOUDY    48  47  96 NE8       30.12S
EASTON         CLOUDY   N/A N/A N/A NE3       30.15F
CAMBRIDGE        N/A     46  46 100 NE3       30.11F
SALISBURY      CLOUDY    49  48  97 N6        30.11F
OCEAN CITY     CLOUDY    50  48  93 NE12      30.10S FOG
WALLOPS ISLAND CLOUDY    50  48  93 NE9       30.10F
ACCOMACK*      CLOUDY    50  34  53 NE6       30.08F
$$

NCZ012>017-030>032-300800-
NORTH CENTRAL AND EASTERN NORTH CAROLINA

CITY           SKY/WX    TMP DP  RH WIND       PRES   REMARKS
ROANOKE RAPIDS CLOUDY    55  54  94 NE5       30.08S
RALEIGH        CLOUDY    60  57  89 E7        30.06S
ELIZABETH CITY CLOUDY    55  53  93 N9        30.07R
AHOSKIE*       CLOUDY    56  53  90 CALM      30.09R
EDENTON*       CLOUDY    57  56  97 NE5       30.09R
CURRITUCK*     CLOUDY    56  55  95 NE10G17   30.07S
KILL DEVIL HLS CLOUDY    55  54  98 N8        30.03S
MANTEO         NOT AVBL
CAPE HATTERAS  CLOUDY    57  55  93 VRB7      30.04R
TARBORO*       CLOUDY    59  57  92 NE7       30.08S
GOLDSBORO      PTCLDY    59  59 100 NE7       30.02F
WASHINGTON     CLOUDY    58  56  92 CALM      30.06R
GREENVILLE     CLOUDY    61  59  94 NE3       30.08R
NEW BERN       CLOUDY    62  59  90 NE8       30.05R
WILMINGTON     CLEAR     62  60  93 CALM      30.00S
$$

VAZ048-300800-
ELSEWHERE

CITY           SKY/WX    TMP DP  RH WIND       PRES   REMARKS
HARRISBURG PA  LGT RAIN  46  44  93 NE6       30.13S FOG
BALTIMORE      CLOUDY    50  47  89 NE7       30.12S
ANNAPOLIS      CLOUDY    51  48  89 MISG      30.12S
ANDREWS AFB    CLOUDY    50  49  96 NE7       30.11S
PHILADELPHIA   CLOUDY    47  41  80 NE9       30.15F
HENDERSON NC   CLOUDY    58  58 100 NE6       30.07S
GREENSBORO     CLOUDY    62  60  93 NE13      30.03R
ROCKY MOUNT    CLOUDY    59  57  93 NE7       30.07R
$$

VAZ100-300800-
MARINE

STATION/POSITION TIME  TEMP    WIND        PRES    WAVE   SWELL
                       AIR SEA DIR/SP/G            HT/PER HT/PER
                 (UTC) (F)     (DEG/KT/KT) (MB)    (FT/S) (FT/S)
BRANDYWINE LGT   0600   48      40/ 16/ 19 1020.0F
CAPE MAY NJ      0600   47 57   10/  5/  9 1019.8R
LEWES DE         0600   50 54   30/ 15/ 17 1019.8R
15NM E FENWICK I 0650   50 51              1018.8R   6/ 8
OCEAN-CITY-INLET 0600   50 54   30/  9/ 12 1018.8R
WACHAPREAGUE VA  0600   51 58   30/  5/  7 1018.7R
THOMAS POINT MD  0700   51 57   50/  7/  8 1021.2F
GOOSES REEF MD   0700   52 57   60/ 10/ 12 1020.7F   1/ 2
COVE POINT MD    0600   51      80/  7/  9 1020.3S
SOLOMONS ISLAND  0600   52 59   50/  4/  5   N/A
BISHOPS HEAD MD  0600   51 57   10/  7/ 12 1019.1R
PINEY POINT MD   0600           40/  4/  5   N/A
POTOMAC MD       0700   53 58   40/ 10/ 12 1018.4F   1
CAMBRIDGE MD     0600   51 61   40/  9/ 13 1019.1R
LEWISETTA VA     0600   53 59   50/  5/  7 1019.2R
RAPPAHANNOCK LGT 0600           10/ 13/ 14 1019.7R
STINGRAY PT      0700   54 60   30/ 10/ 14 1019.2F   1/ 3
YORK RVR RNG VA  0600   55      30/ 11/ 14 1018.4R
YORKTOWN VA      0600   55 62   10/  8/ 11 1018.9R
JAMESTOWN VA     0700   54 66   40/  6/  8   N/A
DOMINION TERM VA 0600   55      20/  5/  9 1019.0R
KIPTOPEKE VA     0600      59   30/  3/  9   N/A
CHES BAY BRIDGE  0600   54 60  350/ 12/ 13 1018.2R
CAPE HENRY VA    0600   54      20/ 15/ 17   N/A
CHESAPEAKE LGHT  0600   53      20/ 16/ 18 1018.7S
WILLOUBY STN VA  0600   55     360/ 11/ 13 1019.6R
CAPE HENRY BUOY  0612      56                N/A     5/ 8   2/11
CAPE CHARLES BUO 0626      56                N/A     5/ 8   3/ 8
OFFSHORE WE BUOY 0621      53                N/A     6/ 8   5/ 8
64NM E OF VA BCH 0650   53 53  360/ 17/ 19 1016.8S   5/11   5/11
DUCK PIER NC     0600   55 66   20/ 15/ 16 1017.1F
44100 DUCK FRF   0624      56                N/A     4/11   2/11
44056 DUCK FRF   0611      58                N/A     4/11   2/11
OREGON INLET NC  0600   55 64   10/ 10/ 17 1016.5F
HATTERAS NC      0600   59 70   30/  8/ 12 1016.5R
DIAMOND SHLS NC  0650   60 74   30/ 12/ 14 1016.4F   4/ 8   3/ 8
CAPE LOOKOUT NC  0700   64      50/ 12/ 14 1016.2R
C1F1C2F2C3F3C4F4C5F5C6F6C7F7C8M1C9!



USA.gov is the U.S. government's official web portal to all federal, state and local government web resources and services.